USA 134

Last updated on Sun Apr 12 2026 00:02:50 GMT+0000 (Coordinated Universal Time)

1 25019U 97065A 26101.39280854 -.00000055 00000+0 00000+0 0 9992 2 25019 12.7058 22.2157 0005942 323.9475 242.4126 1.00273074 32284
UTC large
Height (km)
Speed (km/s)
/
Latitude / Longitude
Inclination (degrees)
Orbital Period (minutes)
Azimuth
Elevation
Range (km)
Doppler Factor

Next 0 passes for location: London (51.5072 / 0.1276)

Sorry there are no passes over London.
USA 134